Flag for Norway Weather past 2 weeks in Larvik, Norway

45 °F

Broken clouds.

Feels Like: 43 °F
Forecast: 45 / 50 °F
Wind: 3 mph from North

Location: Torp

Current Time: Oct 9, 2015 at 8:01:01 PM

Latest Report: Oct 9, 2015 at 7:20 PM

Visibility: N/A

Pressure: 30.36 "Hg

Humidity: 93%

Dew point: 43 °F

Location of LarvikLocation

Historic Weather in Larvik — Graph


Larvik temperature yesterday

Maximum temperature yesterday: 50 °F (at 1:20 PM)
Minimum temperature yesterday: 45 °F (at 1:50 AM)
Average temperature yesterday: 46 °F

Past Weeks' High & Low Weather Summary

High64 °F (Sep 30, 2:20 PM)100% (Sep 24, 7:20 PM)30.72 "Hg (Sep 24, 7:20 PM)
Low39 °F (Oct 4, 3:50 AM)39% (Sep 27, 3:50 PM)29.68 "Hg (Sep 24, 9:20 PM)
Average50 °F79%30.22 "Hg
* Reported Sep 24 6:20 PM — Oct 9 6:50 PM, Larvik, Weather by CustomWeather, © 2015

Note: Actual official high and low records may vary slightly from our data, if they occured in-between our weather recording intervals... More about our weather records


Larvik weather history for previous 24 hours

Time TempWeatherWind HumidityBarometerVisibility
6:50 PM
Fri, Oct 9
46 °FPartly sunny.3 mph82%30.36 "HgN/A
6:20 PM46 °FPartly sunny.2 mph82%30.36 "HgN/A
5:50 PM46 °FPartly sunny.3 mph82%30.36 "HgN/A
5:20 PM46 °FPartly sunny.3 mph82%30.36 "HgN/A
4:50 PM46 °FBroken clouds.3 mph82%30.36 "HgN/A
4:20 PM46 °FBroken clouds.3 mph82%30.36 "HgN/A
3:50 PM46 °FPartly sunny.3 mph82%30.36 "HgN/A
3:20 PM46 °FDrizzle. Partly sunny.2 mph82%30.36 "HgN/A
2:50 PM46 °FPartly sunny.3 mph82%30.36 "HgN/A
2:20 PM46 °FBroken clouds.3 mph82%30.36 "HgN/A
1:50 PM46 °FBroken clouds.3 mph82%30.36 "HgN/A
1:20 PM46 °FPartly sunny.5 mph82%30.36 "HgN/A
12:50 PM46 °FBroken clouds.5 mph76%30.36 "HgN/A
12:20 PM46 °FBroken clouds.5 mph82%30.36 "HgN/A
11:50 AM46 °FBroken clouds.5 mph82%30.36 "HgN/A
11:20 AM46 °FBroken clouds.3 mph82%30.36 "HgN/A
10:50 AM45 °FPartly sunny.3 mph87%30.36 "HgN/A
10:20 AM45 °FBroken clouds.3 mph87%30.33 "HgN/A
9:50 AM45 °FBroken clouds.3 mph87%30.33 "HgN/A
9:20 AM45 °FBroken clouds.3 mph87%30.33 "HgN/A
8:50 AM45 °FBroken clouds.3 mph87%30.33 "HgN/A
8:20 AM45 °FPartly cloudy.3 mph87%30.33 "HgN/A
7:50 AM43 °FPartly cloudy.3 mph93%30.33 "HgN/A
7:20 AM43 °FMostly cloudy.3 mph100%30.30 "HgN/A
6:50 AM43 °FMostly cloudy.3 mph100%30.30 "HgN/A
6:20 AM43 °FOvercast.2 mph100%30.30 "HgN/A
5:20 AM43 °FMostly cloudy.2 mph100%30.30 "HgN/A
4:50 AM43 °FMostly cloudy.3 mph100%30.30 "HgN/A
4:20 AM43 °FMostly cloudy.3 mph100%30.30 "HgN/A
3:50 AM43 °FOvercast.5 mph100%30.30 "HgN/A
3:20 AM43 °FMostly cloudy.3 mph100%30.30 "HgN/A
2:50 AM43 °FMostly cloudy.3 mph100%30.30 "HgN/A
2:20 AM43 °FDrizzle. Mostly cloudy.3 mph100%30.30 "HgN/A
1:50 AM43 °FLight rain. Passing clouds.3 mph100%30.30 "HgN/A
1:20 AM43 °FPartly cloudy.5 mph100%30.30 "HgN/A
12:50 AM43 °FPassing clouds.5 mph100%30.30 "HgN/A
12:20 AM43 °FLight rain. Passing clouds.5 mph100%30.30 "HgN/A
11:50 PM
Thu, Oct 8
45 °FDrizzle. Mostly cloudy.5 mph93%30.30 "HgN/A
11:20 PM45 °FDrizzle. Overcast.5 mph100%30.30 "HgN/A
10:20 PM45 °FDrizzle. Overcast.5 mph100%30.30 "HgN/A
9:50 PM45 °FPassing clouds.5 mph93%30.30 "HgN/A
9:20 PM45 °FPartly cloudy.5 mph93%30.30 "HgN/A
8:50 PM45 °FPassing clouds.5 mph93%30.30 "HgN/A
8:20 PM46 °FLight rain. Partly cloudy.3 mph87%30.27 "HgN/A
Weather by CustomWeather, © 2015

See weather overviewHow to use our weather pages